When you browse on this site, cookies collect data to enhance your experience and personalize the content and advertising you see.
Visit our Privacy Policy to learn more. By continuing to use the site, you agree to this use of cookies and data.

Stündliche Wetter Bolshie Lupyazhi

Heute, 23 September, Mittwoch

Zeit Temperatur Niederschläge Wind Luftdruck Luftfeuchtigkeit
00:00 +12°C° 0 mm 4 m/S 750 mmHg 84%
01:00 +12°C° 0 mm 4 m/S 751 mmHg 87%
02:00 +11°C° 0 mm 3 m/S 751 mmHg 89%
03:00 +11°C° 0 mm 3 m/S 751 mmHg 93%
04:00 +10°C° 0 mm 3 m/S 752 mmHg 94%
05:00 +10°C° 0 mm 3 m/S 752 mmHg 95%
06:00 +10°C° 0 mm 2 m/S 752 mmHg 96%
07:00 +12°C° 0 mm 2 m/S 753 mmHg 91%
08:00 +13°C° 0 mm 2 m/S 753 mmHg 85%
09:00 +15°C° 0 mm 2 m/S 753 mmHg 79%
10:00 +16°C° 0 mm 2 m/S 753 mmHg 70%
11:00 +18°C° 0 mm 2 m/S 753 mmHg 61%
12:00 +20°C° 0 mm 3 m/S 753 mmHg 52%
13:00 +20°C° 0 mm 2 m/S 753 mmHg 51%
14:00 +21°C° 0 mm 2 m/S 753 mmHg 49%
15:00 +21°C° 0 mm 2 m/S 753 mmHg 48%
16:00 +20°C° 0 mm 2 m/S 753 mmHg 55%
17:00 +19°C° 0 mm 1 m/S 753 mmHg 61%
18:00 +16°C° 0 mm 1 m/S 753 mmHg 68%
19:00 +16°C° 0 mm 1 m/S 753 mmHg 71%
20:00 +15°C° 0 mm 1 m/S 753 mmHg 74%
21:00 +15°C° 0 mm 1 m/S 754 mmHg 77%
22:00 +14°C° 0 mm 1 m/S 754 mmHg 79%
23:00 +14°C° 0 mm 1 m/S 754 mmHg 81%

Morgen, 24 September, Donnerstag

Zeit Temperatur Niederschläge Wind Luftdruck Luftfeuchtigkeit
00:00 +14°C° 0 mm 1 m/S 753 mmHg 84%
01:00 +13°C° 0 mm 1 m/S 754 mmHg 86%
02:00 +13°C° 0 mm 1 m/S 754 mmHg 87%
03:00 +13°C° 0 mm 1 m/S 755 mmHg 89%
04:00 +12°C° 0 mm 1 m/S 755 mmHg 90%
05:00 +12°C° 0 mm 2 m/S 755 mmHg 91%
06:00 +12°C° 0 mm 2 m/S 755 mmHg 92%
07:00 +14°C° 0 mm 2 m/S 755 mmHg 86%
08:00 +15°C° 0 mm 2 m/S 755 mmHg 80%
09:00 +17°C° 0 mm 2 m/S 755 mmHg 74%
10:00 +18°C° 0 mm 2 m/S 755 mmHg 68%
11:00 +20°C° 0 mm 2 m/S 755 mmHg 62%
12:00 +23°C° 0 mm 2 m/S 755 mmHg 56%
13:00 +23°C° 0 mm 2 m/S 755 mmHg 54%
14:00 +23°C° 0 mm 2 m/S 755 mmHg 52%
15:00 +24°C° 0 mm 2 m/S 756 mmHg 50%
16:00 +21°C° 0 mm 2 m/S 755 mmHg 56%
17:00 +19°C° 0 mm 2 m/S 755 mmHg 62%
18:00 +19°C° 0 mm 1 m/S 755 mmHg 68%
19:00 +17°C° 0 mm 2 m/S 755 mmHg 71%
20:00 +16°C° 0 mm 2 m/S 755 mmHg 73%
21:00 +15°C° 0 mm 2 m/S 756 mmHg 76%
22:00 +15°C° 0 mm 2 m/S 756 mmHg 76%
23:00 +14°C° 0 mm 2 m/S 756 mmHg 76%

übermorgen, 25 September, Freitag

Zeit Temperatur Niederschläge Wind Luftdruck Luftfeuchtigkeit
00:00 +14°C° 0 mm 2 m/S 756 mmHg 76%
01:00 +13°C° 0 mm 2 m/S 756 mmHg 76%
02:00 +13°C° 0 mm 2 m/S 756 mmHg 75%
03:00 +12°C° 0 mm 2 m/S 756 mmHg 75%
04:00 +12°C° 0 mm 2 m/S 756 mmHg 77%
05:00 +12°C° 0 mm 2 m/S 756 mmHg 78%
06:00 +10°C° 0 mm 2 m/S 756 mmHg 79%
07:00 +13°C° 0 mm 2 m/S 756 mmHg 75%
08:00 +14°C° 0 mm 2 m/S 756 mmHg 71%
09:00 +16°C° 0 mm 3 m/S 756 mmHg 68%
10:00 +18°C° 0 mm 3 m/S 756 mmHg 63%
11:00 +19°C° 0 mm 3 m/S 756 mmHg 58%
12:00 +21°C° 0 mm 3 m/S 756 mmHg 53%
13:00 +21°C° 0 mm 3 m/S 756 mmHg 52%
14:00 +22°C° 0 mm 3 m/S 756 mmHg 50%
15:00 +22°C° 0 mm 3 m/S 756 mmHg 48%
16:00 +21°C° 0 mm 3 m/S 756 mmHg 55%
17:00 +19°C° 0 mm 3 m/S 756 mmHg 62%
18:00 +17°C° 0 mm 2 m/S 755 mmHg 69%
19:00 +16°C° 0 mm 3 m/S 756 mmHg 71%
20:00 +16°C° 0 mm 3 m/S 756 mmHg 73%
21:00 +14°C° 0 mm 3 m/S 756 mmHg 76%
22:00 +13°C° 0 mm 3 m/S 756 mmHg 75%
23:00 +13°C° 0 mm 3 m/S 756 mmHg 74%

26 September, Samstag

Zeit Temperatur Niederschläge Wind Luftdruck Luftfeuchtigkeit
00:00 +12°C° 0 mm 3 m/S 756 mmHg 72%
01:00 +11°C° 0 mm 3 m/S 756 mmHg 72%
02:00 +11°C° 0 mm 3 m/S 756 mmHg 72%
03:00 +10°C° 0 mm 2 m/S 756 mmHg 71%
04:00 +10°C° 0 mm 2 m/S 756 mmHg 71%
05:00 +9°C° 0 mm 2 m/S 756 mmHg 71%
06:00 +9°C° 0 mm 3 m/S 756 mmHg 71%
07:00 +10°C° 0 mm 3 m/S 757 mmHg 66%
08:00 +12°C° 0 mm 3 m/S 757 mmHg 62%
09:00 +13°C° 0 mm 3 m/S 757 mmHg 57%
10:00 +16°C° 0 mm 3 m/S 757 mmHg 53%
11:00 +18°C° 0 mm 3 m/S 757 mmHg 49%
12:00 +19°C° 0 mm 4 m/S 757 mmHg 46%
13:00 +20°C° 0 mm 4 m/S 757 mmHg 45%
14:00 +20°C° 0 mm 4 m/S 757 mmHg 44%
15:00 +20°C° 0 mm 4 m/S 757 mmHg 43%
16:00 +19°C° 0 mm 3 m/S 757 mmHg 50%
17:00 +17°C° 0 mm 3 m/S 757 mmHg 57%
18:00 +14°C° 0 mm 3 m/S 757 mmHg 64%
19:00 +14°C° 0 mm 3 m/S 757 mmHg 66%
20:00 +13°C° 0 mm 3 m/S 757 mmHg 69%
21:00 +12°C° 0 mm 3 m/S 757 mmHg 71%
22:00 +12°C° 0 mm 3 m/S 757 mmHg 73%
23:00 +12°C° 0 mm 3 m/S 757 mmHg 74%

27 September, Sonntag

Zeit Temperatur Niederschläge Wind Luftdruck Luftfeuchtigkeit
00:00 +12°C° 0 mm 3 m/S 757 mmHg 75%
01:00 +12°C° 0 mm 3 m/S 758 mmHg 74%
02:00 +11°C° 0 mm 3 m/S 758 mmHg 73%
03:00 +11°C° 0 mm 3 m/S 758 mmHg 71%
04:00 +11°C° 0 mm 3 m/S 758 mmHg 71%
05:00 +11°C° 0 mm 3 m/S 758 mmHg 70%
06:00 +10°C° 0 mm 3 m/S 758 mmHg 69%
07:00 +12°C° 0 mm 3 m/S 759 mmHg 64%
08:00 +13°C° 0 mm 3 m/S 759 mmHg 58%
09:00 +14°C° 0 mm 4 m/S 759 mmHg 53%
10:00 +17°C° 0 mm 4 m/S 759 mmHg 48%
11:00 +18°C° 0 mm 4 m/S 759 mmHg 44%
12:00 +19°C° 0 mm 5 m/S 759 mmHg 39%
13:00 +19°C° 0 mm 5 m/S 759 mmHg 39%
14:00 +19°C° 0 mm 5 m/S 759 mmHg 39%
15:00 +19°C° 0 mm 5 m/S 759 mmHg 38%
16:00 +18°C° 0 mm 4 m/S 758 mmHg 43%
17:00 +15°C° 0 mm 4 m/S 758 mmHg 48%
18:00 +14°C° 0 mm 3 m/S 758 mmHg 54%
19:00 +13°C° 0 mm 3 m/S 758 mmHg 55%
20:00 +12°C° 0 mm 4 m/S 758 mmHg 56%
21:00 +12°C° 0 mm 4 m/S 758 mmHg 57%
22:00 +11°C° 0 mm 4 m/S 758 mmHg 57%
23:00 +11°C° 0 mm 4 m/S 759 mmHg 57%

28 September, Montag

Zeit Temperatur Niederschläge Wind Luftdruck Luftfeuchtigkeit
00:00 +10°C° 0 mm 4 m/S 759 mmHg 57%
01:00 +10°C° 0 mm 4 m/S 759 mmHg 58%
02:00 +10°C° 0 mm 4 m/S 759 mmHg 58%
03:00 +8°C° 0 mm 4 m/S 759 mmHg 58%
04:00 +8°C° 0 mm 4 m/S 759 mmHg 59%
05:00 +8°C° 0 mm 4 m/S 759 mmHg 60%
06:00 +7°C° 0 mm 4 m/S 759 mmHg 61%
07:00 +8°C° 0 mm 4 m/S 759 mmHg 57%
08:00 +10°C° 0 mm 5 m/S 759 mmHg 54%
09:00 +12°C° 0 mm 5 m/S 759 mmHg 51%
10:00 +13°C° 0 mm 5 m/S 759 mmHg 47%
11:00 +14°C° 0 mm 5 m/S 759 mmHg 43%
12:00 +16°C° 0 mm 5 m/S 759 mmHg 40%
13:00 +16°C° 0 mm 5 m/S 759 mmHg 39%
14:00 +16°C° 0 mm 5 m/S 759 mmHg 39%
15:00 +17°C° 0 mm 5 m/S 759 mmHg 39%
16:00 +15°C° 0 mm 4 m/S 759 mmHg 43%
17:00 +14°C° 0 mm 3 m/S 759 mmHg 48%
18:00 +13°C° 0 mm 3 m/S 759 mmHg 52%
19:00 +12°C° 0 mm 3 m/S 759 mmHg 53%
20:00 +12°C° 0 mm 3 m/S 759 mmHg 54%
21:00 +11°C° 0 mm 3 m/S 760 mmHg 55%
22:00 +11°C° 0 mm 3 m/S 760 mmHg 55%
23:00 +11°C° 0 mm 3 m/S 760 mmHg 55%
Mehr zeigen